Wind_Speed
40 41 41 42 44 47 48 51 49 36 31 32 39 46 43 39 38 36 31 28 27 28 19 18 18 24 17 12 9 17 18 10 13 19 14 15 17 17 24 11 7 12 14 24
37 39 41 41 38 38 40 43 49 46 41 44 45 47 41 37 40 41 38 34 29 27 25 20 20 22 20 20 17 10 14 12 4 3 12 21 25 29 25 25 27 27 8 7
38 36 34 36 35 34 32 35 43 30 32 42 42 39 47 47 47 45 41 39 35 30 30 25 15 17 19 17 18 20 22 20 17 14 5 5 10 13 25 31 24 27 34 38
42 40 38 34 32 29 29 35 42 42 38 36 28 34 47 40 39 40 37 38 41 36 33 26 22 22 26 24 25 23 25 29 28 33 32 28 29 26 22 28 36 28 36 30
40 39 36 35 33 29 29 35 44 37 45 49 51 50 47 41 46 34 37 43 43 31 36 29 22 12 17 21 22 22 28 28 24 30 32 30 32 30 34 37 37 40 42 41
37 36 35 34 31 32 33 32 36 52 52 48 52 59 54 48 42 42 44 37 30 33 36 33 27 27 28 22 20 23 25 29 25 22 25 16 19 34 30 35 37 42 43 26
35 33 31 30 28 28 30 35 36 38 54 55 50 53 53 54 47 44 40 36 41 41 38 33 28 27 29 31 34 32 32 26 23 13 12 6 23 16 17 18 22 23 31 20
32 27 27 28 27 26 27 30 29 34 41 42 46 51 53 49 40 46 40 42 32 30 28 25 22 25 28 35 35 36 37 30 23 17 21 26 23 23 21 20 18 12 14 8
29 27 27 27 27 26 26 27 27 29 33 39 32 37 47 63 65 52 50 47 39 37 34 28 25 18 24 14 12 25 37 37 31 18 9 6 3 14 17 14 21 19 19 15
31 26 27 27 27 27 29 29 29 30 32 30 26 29 38 48 58 55 49 40 40 37 35 33 31 34 35 35 26 22 35 38 42 33 21 12 24 22 17 7 4 9 13 14
31 27 28 29 28 28 31 31 30 30 35 29 24 25 27 40 44 54 47 38 39 35 33 29 30 28 29 32 35 34 29 23 21 27 17 19 20 20 15 13 13 13 13 14
29 28 29 28 27 27 28 30 27 30 34 31 27 26 23 20 16 30 47 46 38 28 29 33 27 17 16 31 29 27 22 25 22 19 26 19 16 16 18 17 17 15 14 14
27 28 29 29 29 27 25 28 28 29 33 25 22 18 22 14 12 15 21 42 36 34 32 26 25 14 23 22 28 27 28 24 27 18 17 18 19 17 19 20 13 12 12 13
30 31 32 29 28 27 24 25 23 25 25 27 21 18 16 14 11 12 4 15 23 24 27 27 23 19 20 22 25 25 30 29 32 35 33 17 13 21 22 19 18 17 17 18
34 34 32 28 26 25 25 21 17 14 16 28 30 22 15 21 23 17 10 9 9 20 20 20 21 24 25 26 26 27 29 31 30 28 26 30 35 30 25 29 30 29 30 31
35 32 29 26 25 23 24 19 13 15 21 24 30 22 14 13 16 12 11 13 17 14 13 17 21 22 16 5 7 18 25 28 30 32 29 27 27 28 31 34 36 37 35 34
33 30 27 23 21 21 20 19 15 19 17 21 19 16 13 15 7 9 11 12 10 10 8 15 15 9 11 11 11 6 7 15 20 24 24 24 17 15 15 17 20 22 24 23
28 25 22 18 19 16 13 15 14 16 18 14 8 17 16 18 8 6 4 8 7 8 6 5 6 10 13 4 6 3 3 4 5 8 10 13 14 14 15 17 16 16 18 20
19 17 17 13 12 9 8 11 14 16 14 10 9 18 17 12 10 5 2 3 1 3 5 6 2 6 4 3 6 7 5 4 6 6 6 8 8 10 12 13 15 16 18 18
13 11 11 6 8 10 11 11 7 5 3 5 16 17 20 18 9 7 4 1 1 1 2 4 3 10 5 1 1 3 9 9 7 7 6 5 5 7 9 12 14 14 14 15
14 12 8 8 10 11 6 6 6 6 3 11 16 21 22 17 9 4 3 2 2 2 2 4 5 10 9 4 2 1 2 1 1 2 2 2 3 4 5 5 6 6 7 8
15 13 9 9 8 6 6 8 7 8 7 18 17 17 18 19 11 6 2 2 3 1 4 3 6 10 6 4 6 7 8 9 8 6 4 4 4 4 4 5 6 7 8 9
12 12 10 6 7 10 8 10 10 12 18 20 15 14 12 8 10 6 6 1 1 2 7 6 8 9 11 12 14 13 11 10 11 10 8 7 7 7 6 6 7 8 9 10
11 9 10 8 7 8 9 12 13 15 18 17 15 10 7 10 8 6 7 7 6 6 8 8 9 10 12 15 15 12 11 9 9 7 7 6 6 6 7 7 8 9 10 10
9 7 7 11 11 12 12 13 16 18 18 16 10 7 10 9 5 7 6 6 8 8 9 9 8 7 8 10 10 7 5 6 6 7 8 8 9 9 10 11 12 13 14 14
9 8 6 9 10 13 14 15 17 18 16 11 8 9 5 9 6 7 10 6 8 7 6 6 5 6 7 8 9 9 9 10 10 10 11 12 13 13 14 15 15 17 18 18
10 12 13 13 14 15 17 17 18 18 16 13 6 8 7 7 8 9 9 10 7 6 5 7 10 12 12 11 10 9 9 10 12 13 14 15 16 17 19 19 20 21 23 24
Wind_Direction
299 298 296 292 288 285 286 284 282 279 274 263 260 262 267 268 266 269 267 265 256 265 252 253 252 258 253 255 262 242 241 235 243 266 279 259 247 241 227 222 246 237 263 273
302 301 301 300 295 289 286 284 281 275 266 258 258 263 262 260 261 263 266 266 258 268 254 240 253 264 263 264 264 238 237 232 238 233 242 241 237 236 229 234 253 257 241 256
304 302 297 295 292 286 276 276 280 280 271 266 261 256 260 261 263 264 262 261 257 251 249 245 243 247 267 253 258 240 242 233 226 218 190 261 241 251 240 229 230 242 244 253
310 308 304 298 290 284 271 261 266 267 263 266 265 260 259 252 250 250 255 252 247 250 246 248 254 263 263 265 260 250 235 245 252 258 257 256 262 264 254 236 248 230 267 254
309 308 307 303 298 282 268 264 257 276 274 268 263 256 256 258 248 243 244 253 257 240 238 247 257 270 253 256 265 251 244 246 260 262 266 263 263 260 257 252 253 254 261 266
310 309 310 309 305 297 285 269 264 259 262 276 265 257 257 251 252 250 246 256 248 244 250 256 254 246 244 246 250 255 246 248 252 264 274 270 255 259 264 261 257 253 248 263
309 309 311 313 313 308 296 292 285 282 269 265 270 259 258 252 241 251 250 248 249 252 256 253 250 252 254 248 242 250 252 247 240 266 257 236 265 256 262 259 268 263 259 262
309 314 313 316 317 319 300 292 296 290 284 283 280 269 270 248 241 238 244 243 241 240 243 253 258 257 261 255 252 244 244 239 232 231 237 255 256 272 282 272 273 254 265 222
309 307 306 310 316 317 313 304 288 296 296 285 300 289 261 250 250 241 239 241 247 251 253 245 241 238 249 249 237 230 229 227 223 222 230 230 284 252 255 267 260 255 238 230
314 305 305 305 305 308 308 314 314 301 296 292 296 275 258 256 243 237 241 245 251 245 243 244 239 246 248 241 242 232 216 219 220 221 235 255 249 266 274 258 269 214 208 182
315 306 301 304 303 304 305 306 313 319 307 287 290 276 286 263 230 230 229 223 224 228 227 228 242 243 240 237 241 234 226 204 222 223 238 250 241 243 257 256 226 197 188 182
305 308 305 303 304 303 304 307 313 311 307 288 293 295 294 279 239 213 221 231 226 234 226 225 222 226 218 226 233 233 222 225 227 220 226 236 232 238 240 214 199 189 188 189
306 310 311 308 305 304 302 305 306 314 314 298 285 279 302 269 262 223 211 215 236 239 241 246 221 221 230 222 225 224 225 229 237 239 233 242 254 236 224 212 222 227 228 236
308 308 309 306 302 308 298 299 309 310 313 310 299 285 274 272 298 314 213 230 229 237 245 240 222 224 242 237 238 235 234 235 238 239 237 233 238 229 228 232 234 241 248 255
306 307 307 304 303 306 302 299 305 318 315 311 313 319 312 304 302 308 300 267 245 227 228 233 241 250 257 259 255 253 261 255 245 245 252 244 239 240 234 242 259 273 282 286
305 305 305 301 300 304 302 298 299 314 320 316 311 328 319 289 278 278 274 255 234 229 226 235 238 235 238 229 246 246 253 242 249 250 242 248 249 250 253 258 260 262 267 269
307 303 306 300 298 296 289 291 298 309 314 320 315 329 333 339 347 262 261 252 246 253 239 237 235 228 230 226 218 238 235 234 243 244 249 253 257 256 265 270 268 273 273 275
301 303 305 300 304 295 291 300 311 305 309 314 299 319 334 331 2 69 103 194 239 240 233 185 207 234 228 210 203 192 266 313 289 286 283 276 271 263 268 276 277 281 287 289
309 310 308 303 312 310 303 304 305 303 299 289 297 316 319 316 315 34 88 117 160 179 204 222 211 193 113 158 188 203 204 250 278 298 257 263 276 281 285 297 312 310 305 301
338 332 335 332 330 322 318 318 333 345 338 360 9 356 344 349 335 289 326 0 339 72 190 202 213 94 92 129 119 311 300 287 283 292 283 266 283 297 292 290 294 292 291 295
342 346 345 332 328 334 1 4 354 352 24 6 356 352 350 5 333 315 206 225 163 155 189 199 98 63 76 70 61 81 252 250 318 311 269 272 299 332 324 317 316 324 325 321
351 347 348 356 19 23 21 14 13 1 356 336 335 344 347 1 14 340 302 196 181 171 162 101 61 34 70 84 108 118 122 118 115 101 81 67 63 61 47 30 17 7 0 353
10 22 13 14 32 37 35 13 358 356 350 347 337 340 342 357 354 343 342 354 278 156 55 63 57 85 114 116 111 106 99 90 80 78 79 71 62 56 48 36 19 7 356 349
28 24 22 34 30 25 14 7 358 354 351 349 345 354 12 13 359 344 360 15 49 54 53 63 74 89 101 92 79 75 73 67 58 44 37 22 7 360 350 339 333 331 326 321
31 34 33 31 28 10 6 360 358 355 351 352 359 18 30 12 26 12 21 42 51 56 75 86 84 81 73 74 69 56 37 21 6 357 348 348 347 345 340 339 332 326 321 316
34 33 23 12 17 16 12 8 5 1 359 358 29 25 26 27 30 33 34 53 51 62 81 84 76 66 54 44 36 25 11 360 350 345 340 337 331 328 325 321 318 312 309 309
41 37 33 22 16 15 14 14 15 15 16 27 40 32 42 37 42 44 55 67 90 90 78 57 45 37 31 23 13 360 350 343 337 333 328 324 323 319 315 312 307 306 305 304
Height
3084 3080 3078 3075 3074 3071 3069 3066 3066 3067 3067 3069 3062 3057 3061 3063 3062 3064 3063 3060 3059 3060 3061 3058 3058 3054 3054 3051 3051 3053 3054 3053 3051 3049 3051 3050 3049 3048 3051 3054 3052 3049 3047 3035
3074 3070 3067 3064 3063 3061 3058 3053 3051 3054 3057 3050 3049 3050 3051 3052 3051 3053 3054 3052 3052 3052 3052 3054 3050 3049 3048 3047 3047 3047 3048 3049 3047 3046 3048 3045 3043 3044 3044 3046 3048 3043 3046 3034
3065 3062 3059 3056 3053 3051 3050 3047 3040 3041 3039 3039 3041 3041 3036 3039 3040 3041 3041 3042 3043 3043 3043 3044 3043 3043 3042 3043 3043 3042 3042 3042 3041 3037 3036 3038 3038 3037 3038 3040 3038 3034 3030 3027
3054 3050 3047 3046 3044 3042 3041 3039 3032 3031 3030 3027 3030 3033 3028 3027 3031 3030 3031 3028 3029 3032 3033 3035 3034 3035 3034 3037 3037 3037 3037 3032 3034 3032 3032 3032 3031 3033 3032 3031 3027 3030 3012 3023
3045 3041 3037 3035 3031 3033 3031 3028 3029 3023 3015 3016 3019 3018 3013 3017 3020 3023 3019 3019 3019 3022 3022 3026 3029 3029 3027 3027 3029 3030 3030 3027 3027 3023 3025 3025 3021 3021 3023 3021 3020 3018 3014 3011
3037 3032 3029 3026 3022 3018 3017 3018 3016 3011 3003 3002 3003 2995 3002 3004 3012 3011 3012 3013 3015 3012 3012 3017 3021 3020 3021 3021 3018 3022 3023 3023 3024 3017 3019 3018 3014 3006 3008 3007 3007 3007 3007 3000
3029 3025 3021 3018 3016 3012 3009 3007 3005 3000 2988 2991 2988 2987 2993 2994 2997 2998 3003 3005 3003 3003 3006 3008 3009 3010 3010 3012 3012 3013 3014 3016 3019 3016 3017 3010 3001 3001 2998 2999 2999 2999 2997 2998
3021 3018 3015 3012 3009 3006 3002 3000 2996 2989 2980 2979 2976 2978 2980 2981 2983 2986 2989 2992 2994 2995 2997 3000 3001 3000 2999 2997 3002 3004 3005 3009 3008 3009 3008 3000 2995 2996 2996 2994 2992 2993 2993 2996
3014 3011 3009 3006 3003 2999 2994 2991 2987 2981 2972 2968 2966 2963 2966 2963 2966 2971 2973 2981 2985 2986 2988 2991 2989 2988 2989 2990 2989 2991 2995 3000 2999 3000 2999 2994 2989 2990 2990 2989 2987 2986 2989 2991
3008 3004 3001 2999 2996 2992 2987 2983 2978 2972 2964 2960 2958 2953 2951 2953 2953 2953 2961 2967 2971 2975 2975 2977 2979 2977 2981 2982 2979 2983 2984 2988 2986 2989 2990 2985 2988 2987 2987 2988 2989 2983 2984 2986
3000 2997 2994 2992 2988 2985 2980 2976 2971 2965 2955 2950 2949 2945 2941 2939 2936 2939 2946 2953 2954 2961 2963 2965 2966 2964 2967 2970 2971 2970 2974 2978 2980 2984 2985 2982 2984 2983 2984 2983 2981 2981 2982 2984
2994 2990 2987 2984 2980 2977 2973 2968 2964 2958 2950 2943 2941 2937 2934 2931 2928 2925 2927 2934 2940 2946 2948 2948 2954 2955 2956 2958 2961 2965 2968 2968 2970 2972 2971 2974 2975 2977 2977 2975 2976 2977 2979 2981
2988 2985 2981 2977 2973 2970 2966 2961 2958 2952 2942 2935 2933 2930 2927 2924 2921 2918 2920 2923 2928 2934 2938 2941 2944 2947 2949 2952 2954 2959 2960 2962 2965 2968 2969 2969 2970 2970 2971 2972 2973 2973 2974 2976
2982 2978 2974 2970 2966 2963 2959 2955 2952 2947 2941 2931 2926 2925 2921 2917 2916 2916 2916 2919 2922 2927 2931 2934 2937 2941 2943 2946 2949 2951 2954 2956 2956 2957 2960 2961 2963 2961 2965 2965 2966 2967 2968 2969
2974 2970 2966 2963 2959 2956 2953 2950 2948 2944 2942 2932 2923 2922 2918 2914 2912 2912 2912 2915 2918 2921 2925 2929 2932 2935 2940 2940 2943 2943 2947 2948 2949 2951 2950 2952 2955 2954 2956 2958 2957 2958 2960 2961
2965 2962 2958 2955 2953 2951 2947 2945 2944 2941 2938 2932 2923 2920 2914 2912 2911 2910 2910 2911 2914 2917 2919 2923 2926 2930 2936 2936 2937 2937 2939 2940 2942 2944 2944 2946 2948 2948 2949 2950 2951 2953 2953 2954
2957 2953 2951 2948 2947 2945 2944 2943 2940 2937 2935 2931 2923 2917 2915 2912 2907 2908 2908 2910 2912 2915 2917 2920 2923 2926 2929 2931 2934 2934 2934 2936 2937 2938 2939 2940 2941 2942 2942 2942 2943 2944 2945 2946
2947 2945 2944 2942 2941 2940 2939 2937 2936 2934 2932 2929 2924 2920 2916 2911 2908 2908 2909 2909 2911 2911 2914 2917 2920 2923 2926 2928 2929 2930 2931 2932 2933 2934 2934 2935 2936 2937 2937 2937 2937 2938 2938 2939
2940 2940 2939 2938 2937 2936 2935 2934 2933 2931 2932 2927 2924 2920 2917 2913 2910 2910 2910 2908 2909 2912 2913 2916 2920 2921 2921 2924 2925 2927 2928 2929 2930 2931 2932 2932 2933 2934 2934 2934 2934 2935 2935 2935
2938 2937 2936 2936 2935 2934 2934 2931 2930 2929 2928 2927 2925 2921 2918 2913 2909 2910 2912 2910 2910 2911 2914 2916 2917 2920 2923 2923 2923 2924 2925 2927 2929 2929 2930 2930 2930 2931 2931 2932 2932 2932 2932 2931
2940 2937 2936 2936 2934 2933 2931 2931 2930 2929 2928 2928 2925 2921 2916 2912 2911 2909 2910 2911 2910 2911 2914 2914 2916 2920 2923 2924 2924 2923 2924 2925 2926 2927 2928 2929 2928 2928 2928 2928 2929 2929 2929 2929
2941 2939 2937 2936 2935 2934 2935 2933 2934 2932 2931 2928 2924 2921 2918 2914 2912 2911 2911 2910 2912 2913 2913 2915 2922 2926 2924 2925 2925 2925 2926 2926 2926 2927 2928 2928 2928 2927 2927 2928 2928 2928 2927 2927
2944 2942 2940 2939 2940 2939 2939 2939 2938 2935 2931 2928 2923 2921 2919 2918 2916 2914 2913 2911 2914 2914 2915 2923 2929 2928 2927 2927 2927 2926 2927 2927 2927 2928 2929 2929 2929 2928 2927 2926 2927 2927 2926 2925
2947 2946 2945 2945 2945 2945 2944 2942 2940 2937 2932 2928 2924 2922 2920 2920 2919 2917 2916 2917 2916 2920 2926 2931 2932 2932 2930 2929 2929 2931 2930 2931 2931 2932 2930 2930 2930 2927 2927 2925 2925 2925 2925 2924
2950 2951 2951 2950 2950 2948 2945 2943 2939 2936 2932 2928 2925 2924 2923 2922 2921 2921 2921 2922 2926 2932 2935 2936 2936 2935 2933 2932 2932 2932 2932 2932 2931 2931 2931 2929 2927 2926 2926 2923 2922 2922 2921 2920
2955 2955 2954 2953 2951 2949 2946 2943 2940 2937 2933 2929 2927 2927 2926 2926 2927 2927 2928 2932 2935 2938 2937 2937 2936 2935 2934 2933 2933 2932 2932 2931 2930 2929 2928 2926 2925 2924 2922 2921 2919 2919 2917 2916
2959 2958 2956 2954 2952 2950 2947 2945 2942 2939 2936 2932 2930 2932 2932 2933 2934 2935 2937 2939 2940 2939 2938 2937 2936 2936 2935 2935 2935 2934 2933 2931 2930 2928 2927 2925 2922 2920 2920 2917 2916 2914 2912 2909